Date,TemperatureHighF,TemperatureAvgF,TemperatureLowF,DewpointHighF,DewpointAvgF,DewpointLowF,HumidityHigh,HumidityAvg,HumidityLow,PressureMaxIn,PressureMinIn,WindSpeedMaxMPH,WindSpeedAvgMPH,GustSpeedMaxMPH,PrecipitationSumIn
2014-1-1,59,50,38,49,41,31,88,72,61,30.25,30.01,6,0,7,0.00
2014-1-2,52,45,35,48,31,26,92,60,38,30.45,30.07,23,4,23,0.00
2014-1-3,56,42,30,39,28,21,88,59,28,30.45,30.14,13,2,14,0.00
2014-1-4,70,55,40,53,47,38,94,77,52,30.14,29.80,20,2,20,0.00
2014-1-5,55,48,0,53,34,16,97,62,38,30.37,29.78,19,3,19,0.00
2014-1-6,34,26,0,20,12,7,63,54,35,30.73,30.38,15,4,15,0.00
2014-1-7,43,33,20,26,13,7,71,47,23,30.65,30.33,14,2,14,0.00
2014-1-8,52,44,38,51,42,25,96,91,54,30.33,30.09,4,0,4,0.09
2014-1-9,65,57,51,61,55,50,97,94,81,30.16,29.98,11,1,13,0.00
2014-1-10,71,63,55,64,60,53,96,89,69,29.98,29.75,11,2,11,0.06
2014-1-11,74,61,50,54,39,26,97,52,17,30.12,29.84,11,1,12,0.01
2014-1-12,69,57,43,59,48,33,91,72,51,30.10,29.88,13,2,14,0.00
2014-1-13,69,59,44,60,38,23,97,52,20,30.14,29.84,12,2,16,0.00
2014-1-14,75,56,38,33,27,23,60,35,16,30.31,30.00,16,2,18,0.00
2014-1-15,65,50,40,28,23,20,47,36,22,30.44,30.27,10,2,13,0.00
2014-1-16,56,44,56,37,9,-100,49,39,49,30.12,30.10,1,-199,4,0.00
2014-1-17,48,47,46,23,22,21,40,38,37,30.26,30.24,3,1,3,0.00
2014-1-18,70,54,38,46,34,20,71,49,37,30.24,30.08,7,1,14,0.00
2014-1-19,74,56,46,44,34,27,80,47,19,30.32,30.10,6,1,12,0.00
2014-1-20,81,62,45,56,42,28,90,54,25,30.12,29.85,15,2,18,0.00
2014-1-21,65,55,44,31,25,20,43,32,19,30.39,30.12,9,3,19,0.00
2014-1-22,69,45,35,45,25,22,77,48,20,30.21,29.97,12,1,13,0.00
2014-1-23,52,36,27,46,31,25,91,83,70,30.62,30.00,28,7,28,0.00
2014-1-24,35,30,24,28,25,21,91,82,72,30.72,30.38,6,1,16,0.03
2014-1-25,47,36,28,33,28,25,91,76,55,30.38,30.02,1,0,5,0.01
2014-1-26,77,57,39,49,41,31,78,56,36,30.02,29.69,8,2,17,0.00
2014-1-27,57,50,38,46,28,13,73,43,31,30.19,29.78,11,5,26,0.00
2014-1-28,38,32,28,20,16,10,73,52,38,30.47,30.17,8,4,19,0.00
2014-1-29,48,36,26,21,14,10,65,43,27,30.49,30.26,5,2,12,0.00
2014-1-30,66,48,30,50,38,21,92,70,52,30.26,29.89,9,2,19,0.00
2014-1-31,79,63,49,60,55,47,96,78,47,29.95,29.76,8,4,16,0.00
2014-2-1,77,68,63,64,62,60,90,80,58,29.82,29.70,6,3,13,0.00
2014-2-2,65,45,35,62,40,31,93,84,76,30.20,29.77,10,6,20,0.01
2014-2-3,46,39,35,38,35,31,94,84,72,30.23,29.95,9,4,14,0.00
2014-2-4,69,51,40,52,44,38,96,80,38,30.04,29.84,3,0,6,0.17
2014-2-5,48,42,31,45,32,19,92,69,47,30.42,30.02,18,6,21,0.00
2014-2-6,32,29,27,20,18,17,70,64,59,30.50,30.36,15,4,18,0.00
2014-2-7,35,31,27,33,26,19,93,82,65,30.37,30.23,9,2,10,0.01
2014-2-8,65,46,35,44,38,33,95,77,44,30.26,30.05,10,2,11,0.00
2014-2-9,67,53,42,57,48,40,97,85,62,30.14,29.94,11,2,14,0.00
2014-2-10,59,45,34,58,43,31,97,90,81,30.14,29.96,18,5,20,0.00
2014-2-11,34,33,32,32,30,29,93,89,83,30.26,30.12,16,4,19,0.04
2014-2-12,58,43,33,37,32,28,83,66,43,30.25,30.06,12,1,12,0.00
2014-2-13,68,59,48,42,39,37,78,47,35,30.09,29.91,13,2,13,0.00
2014-2-14,81,54,42,53,43,32,95,72,33,30.07,29.83,14,2,14,0.00
2014-2-15,77,62,49,58,40,26,90,46,28,30.15,29.97,13,3,19,0.00
2014-2-16,76,65,61,63,60,58,94,85,64,30.04,29.91,8,2,12,0.00
2014-2-17,71,64,62,64,56,39,96,80,39,30.08,29.92,8,2,12,0.00
2014-2-18,77,68,61,65,55,38,90,66,38,30.07,29.87,11,2,14,0.00
2014-2-19,82,72,62,65,62,61,96,74,50,29.90,29.69,16,5,19,0.00
2014-2-20,83,69,56,67,52,29,96,64,16,30.06,29.70,15,3,18,0.00
2014-2-21,70,58,45,34,30,27,55,36,22,30.16,29.99,11,2,12,0.00
2014-2-22,73,60,46,59,50,34,86,70,51,30.03,29.85,14,2,14,0.00
2014-2-23,82,70,61,66,61,52,96,77,55,29.99,29.86,13,2,14,0.00
2014-2-24,77,66,57,61,55,48,88,68,57,30.06,29.93,17,3,19,0.00
2014-2-25,76,67,54,66,62,51,95,86,69,29.99,29.85,12,3,15,0.00
2014-2-26,54,41,33,51,37,31,93,87,79,30.21,29.96,23,4,28,0.25
2014-2-27,56,43,28,37,32,26,93,67,41,30.23,29.94,11,2,14,0.00
2014-2-28,77,58,43,54,47,37,91,71,43,29.94,29.77,11,3,13,0.00
2014-3-1,72,57,52,66,53,48,97,87,76,29.97,29.86,11,1,16,0.00
2014-3-2,76,64,30,72,60,24,93,89,75,30.17,29.85,18,4,20,0.01
2014-3-3,46,34,25,33,24,18,87,68,45,30.37,30.16,18,5,20,0.06
2014-3-4,46,38,32,38,33,29,93,83,69,30.27,30.03,9,2,9,0.03
2014-3-5,60,47,39,47,41,35,89,80,61,30.15,29.94,8,1,10,0.00
2014-3-6,62,49,42,42,40,38,92,73,44,30.24,30.05,11,1,12,0.00
2014-3-7,70,64,55,51,48,45,85,57,43,30.02,29.84,12,4,15,0.00
2014-3-8,61,55,44,59,52,40,95,91,83,30.20,29.86,18,3,20,0.29
2014-3-9,52,47,43,48,41,36,86,79,74,30.32,30.19,14,3,17,0.00
2014-3-10,67,56,48,57,52,45,96,86,67,30.23,29.87,10,1,13,0.23
2014-3-11,80,64,54,60,55,52,96,76,43,29.93,29.60,14,2,16,0.00
2014-3-12,68,58,50,54,37,25,73,49,23,30.26,29.70,28,5,28,0.00
2014-3-13,67,53,41,32,28,26,55,39,24,30.34,30.14,11,2,18,0.00
2014-3-14,74,69,64,61,58,55,86,68,56,30.06,29.92,14,5,18,0.00
2014-3-15,68,65,63,66,62,57,96,90,72,29.95,29.68,9,1,10,0.00
2014-3-16,68,61,48,64,47,33,93,64,36,30.02,29.69,19,4,19,0.02
2014-3-17,71,54,39,33,30,27,67,42,20,30.04,29.76,14,2,15,0.00
2014-3-18,85,63,42,57,44,30,84,53,25,29.81,29.65,15,3,16,0.00
2014-3-19,73,62,56,56,43,32,90,53,33,30.16,29.81,19,4,22,0.00
2014-3-20,78,63,48,45,40,37,67,46,28,30.21,30.00,12,2,15,0.00
2014-3-21,79,66,52,62,57,45,94,73,53,30.02,29.81,17,3,17,0.00
2014-3-22,79,71,63,68,65,60,96,83,65,29.95,29.85,8,1,10,0.00
2014-3-23,69,60,48,66,51,40,91,73,57,30.21,29.95,22,6,25,0.00
2014-3-24,58,52,48,52,45,40,94,77,62,30.20,30.02,14,1,14,0.15
2014-3-25,68,57,47,50,45,41,95,68,40,30.29,30.12,15,3,18,0.01
2014-3-26,62,58,54,58,52,44,93,81,62,30.19,29.94,21,4,24,0.34
2014-3-27,81,68,60,70,64,58,97,87,62,29.94,29.71,14,2,15,0.08
2014-3-28,94,76,66,68,59,33,96,66,13,29.94,29.67,11,2,13,0.00
2014-3-29,66,62,60,57,40,38,74,45,40,30.18,29.93,7,2,7,0.00
2014-3-30,81,66,54,55,46,38,75,51,33,30.19,29.96,18,4,23,0.00
2014-3-31,72,62,60,62,58,54,94,86,71,30.00,29.90,11,3,17,0.02
2014-4-2,89,60,89,73,15,-100,58,39,58,29.73,29.73,0,-333,1,0.00
2014-4-23,77,77,77,65,64,64,66,66,65,29.04,29.04,2,1,3,0.00